Time,TemperatureF,DewpointF,PressureIn,WindDirection,WindDirectionDegrees,WindSpeedMPH,WindSpeedGustMPH,Humidity,HourlyPrecipIn,Conditions,Clouds,dailyrainin,SoftwareType,DateUTC
2013-08-06 00:01:00,65.0,-99.9,29.78,North,10,0.0,0.0,0,-99.99,,,-99.99,,2013-08-06 07:01:00,
2013-08-06 00:12:00,65.0,-99.9,29.78,North,10,0.0,0.0,0,-99.99,,,-99.99,,2013-08-06 07:12:00,
2013-08-06 00:22:00,65.0,-99.9,29.78,North,10,0.0,0.0,0,-99.99,,,-99.99,,2013-08-06 07:22:00,
2013-08-06 00:53:00,65.0,-99.9,29.79,ESE,120,0.0,0.0,0,-99.99,,,-99.99,,2013-08-06 07:53:00,
2013-08-06 01:02:00,64.0,-99.9,29.79,SE,125,0.0,0.0,0,-99.99,,,-99.99,,2013-08-06 08:02:00,
2013-08-06 01:11:00,64.0,-99.9,29.79,SE,125,0.0,0.0,0,-99.99,,,-99.99,,2013-08-06 08:11:00,
2013-08-06 01:22:00,64.0,-99.9,29.80,ESE,120,0.0,0.0,0,-99.99,,,-99.99,,2013-08-06 08:22:00,
2013-08-06 01:33:00,63.0,-99.9,29.79,ESE,120,0.0,0.0,0,-99.99,,,-99.99,,2013-08-06 08:33:00,
2013-08-06 01:52:00,63.0,-99.9,29.79,ESE,120,0.0,0.0,0,-99.99,,,-99.99,,2013-08-06 08:52:00,
2013-08-06 02:01:00,64.0,-99.9,29.79,ESE,115,0.0,0.0,0,-99.99,,,-99.99,,2013-08-06 09:01:00,
2013-08-06 02:22:00,64.0,-99.9,29.79,ESE,115,0.0,0.0,0,-99.99,,,-99.99,,2013-08-06 09:22:00,
2013-08-06 02:43:00,64.0,-99.9,29.79,ESE,115,0.0,0.0,0,-99.99,,,-99.99,,2013-08-06 09:43:00,
2013-08-06 02:52:00,64.0,-99.9,29.79,ESE,115,0.0,0.0,0,-99.99,,,-99.99,,2013-08-06 09:52:00,
2013-08-06 03:02:00,64.0,-99.9,29.79,ESE,115,0.0,0.0,0,-99.99,,,-99.99,,2013-08-06 10:02:00,
2013-08-06 03:12:00,64.0,-99.9,29.79,ESE,115,0.0,0.0,0,-99.99,,,-99.99,,2013-08-06 10:12:00,
2013-08-06 03:22:00,62.0,-99.9,29.79,ESE,115,0.0,0.0,0,-99.99,,,-99.99,,2013-08-06 10:22:00,
2013-08-06 03:32:00,62.0,-99.9,29.79,ESE,115,0.0,0.0,0,-99.99,,,-99.99,,2013-08-06 10:32:00,
2013-08-06 03:53:00,62.0,-99.9,29.80,ESE,115,0.0,0.0,0,-99.99,,,-99.99,,2013-08-06 10:53:00,
2013-08-06 04:22:00,62.0,-99.9,29.79,ESE,115,0.0,0.0,0,-99.99,,,-99.99,,2013-08-06 11:22:00,
2013-08-06 04:32:00,62.0,-99.9,29.79,ESE,115,0.0,0.0,0,-99.99,,,-99.99,,2013-08-06 11:32:00,
2013-08-06 04:43:00,61.0,-99.9,29.80,ESE,115,0.0,0.0,0,-99.99,,,-99.99,,2013-08-06 11:43:00,
2013-08-06 04:53:00,61.0,-99.9,29.80,ESE,115,0.0,0.0,0,-99.99,,,-99.99,,2013-08-06 11:53:00,
2013-08-06 05:02:00,60.0,-99.9,29.80,ESE,115,0.0,0.0,0,-99.99,,,-99.99,,2013-08-06 12:02:00,
2013-08-06 05:22:00,62.0,-99.9,29.79,ESE,110,0.0,0.0,0,-99.99,,,-99.99,,2013-08-06 12:22:00,
2013-08-06 05:43:00,61.0,-99.9,29.79,ESE,110,0.0,0.0,0,-99.99,,,-99.99,,2013-08-06 12:43:00,
2013-08-06 05:52:00,61.0,-99.9,29.79,ESE,110,0.0,0.0,0,-99.99,,,-99.99,,2013-08-06 12:52:00,
2013-08-06 06:02:00,62.0,-99.9,29.80,ESE,120,0.0,0.0,0,-99.99,,,-99.99,,2013-08-06 13:02:00,
2013-08-06 06:11:00,62.0,-99.9,29.80,ESE,120,0.0,0.0,0,-99.99,,,-99.99,,2013-08-06 13:11:00,
2013-08-06 06:22:00,61.0,-99.9,29.80,ESE,115,0.0,0.0,0,-99.99,,,-99.99,,2013-08-06 13:22:00,
2013-08-06 06:42:00,60.0,-99.9,29.80,ESE,115,0.0,0.0,0,-99.99,,,-99.99,,2013-08-06 13:42:00,
2013-08-06 06:53:00,60.0,-99.9,29.80,East,90,0.0,0.0,0,-99.99,,,-99.99,,2013-08-06 13:53:00,
2013-08-06 07:01:00,60.0,-99.9,29.80,East,90,0.0,0.0,0,-99.99,,,-99.99,,2013-08-06 14:01:00,
2013-08-06 07:11:00,61.0,-99.9,29.80,East,90,0.0,0.0,0,-99.99,,,-99.99,,2013-08-06 14:11:00,
2013-08-06 07:22:00,61.0,-99.9,29.80,ESE,115,0.0,0.0,0,-99.99,,,-99.99,,2013-08-06 14:22:00,
2013-08-06 07:32:00,61.0,-99.9,29.81,ESE,115,0.0,3.0,0,-99.99,,,-99.99,,2013-08-06 14:32:00,
2013-08-06 07:53:00,61.0,-99.9,29.81,ESE,115,0.0,2.0,0,-99.99,,,-99.99,,2013-08-06 14:53:00,
2013-08-06 08:02:00,62.0,-99.9,29.82,SE,145,0.0,2.0,0,-99.99,,,-99.99,,2013-08-06 15:02:00,
2013-08-06 08:23:00,64.0,-99.9,29.82,SSE,150,3.0,5.0,0,-99.99,,,-99.99,,2013-08-06 15:23:00,
2013-08-06 08:33:00,65.0,-99.9,29.82,SE,145,3.0,3.0,0,-99.99,,,-99.99,,2013-08-06 15:33:00,
2013-08-06 08:44:00,65.0,-99.9,29.82,SE,145,3.0,3.0,0,-99.99,,,-99.99,,2013-08-06 15:44:00,
2013-08-06 08:52:00,66.0,-99.9,29.82,SE,125,2.0,3.0,0,-99.99,,,-99.99,,2013-08-06 15:52:00,
2013-08-06 09:02:00,68.0,-99.9,29.82,SSW,200,1.0,6.0,0,-99.99,,,-99.99,,2013-08-06 16:02:00,
2013-08-06 09:11:00,68.0,-99.9,29.82,SSW,200,1.0,6.0,0,-99.99,,,-99.99,,2013-08-06 16:11:00,
2013-08-06 09:22:00,68.0,-99.9,29.82,SSW,200,1.0,6.0,0,-99.99,,,-99.99,,2013-08-06 16:22:00,
2013-08-06 09:32:00,70.0,-99.9,29.82,SSE,165,0.0,5.0,0,-99.99,,,-99.99,,2013-08-06 16:32:00,
2013-08-06 09:52:00,72.0,-99.9,29.81,SE,145,2.0,6.0,0,-99.99,,,-99.99,,2013-08-06 16:52:00,
2013-08-06 10:02:00,72.0,-99.9,29.81,SE,125,3.0,5.0,0,-99.99,,,-99.99,,2013-08-06 17:02:00,
2013-08-06 10:11:00,72.0,-99.9,29.81,SE,125,3.0,5.0,0,-99.99,,,-99.99,,2013-08-06 17:11:00,
2013-08-06 10:22:00,74.0,-99.9,29.81,WNW,285,1.0,3.0,0,-99.99,,,-99.99,,2013-08-06 17:22:00,
2013-08-06 10:32:00,74.0,-99.9,29.81,WNW,285,1.0,3.0,0,-99.99,,,-99.99,,2013-08-06 17:32:00,
2013-08-06 10:44:00,75.0,-99.9,29.81,ESE,110,2.0,8.0,0,-99.99,,,-99.99,,2013-08-06 17:44:00,
2013-08-06 10:52:00,75.0,-99.9,29.81,ESE,110,2.0,8.0,0,-99.99,,,-99.99,,2013-08-06 17:52:00,
2013-08-06 11:02:00,76.0,-99.9,29.81,SE,130,0.0,3.0,0,-99.99,,,-99.99,,2013-08-06 18:02:00,
2013-08-06 11:11:00,76.0,-99.9,29.81,SE,130,0.0,3.0,0,-99.99,,,-99.99,,2013-08-06 18:11:00,
2013-08-06 11:22:00,76.0,-99.9,29.81,SSW,210,0.0,5.0,0,-99.99,,,-99.99,,2013-08-06 18:22:00,
2013-08-06 11:32:00,78.0,-99.9,29.81,SW,230,3.0,7.0,0,-99.99,,,-99.99,,2013-08-06 18:32:00,
2013-08-06 11:52:00,78.0,-99.9,29.80,SSE,160,3.0,6.0,0,-99.99,,,-99.99,,2013-08-06 18:52:00,
2013-08-06 12:01:00,79.0,-99.9,29.81,WSW,245,2.0,6.0,0,-99.99,,,-99.99,,2013-08-06 19:01:00,
2013-08-06 12:11:00,79.0,-99.9,29.81,WSW,245,2.0,6.0,0,-99.99,,,-99.99,,2013-08-06 19:11:00,
2013-08-06 12:22:00,80.0,-99.9,29.80,WSW,240,2.0,9.0,0,-99.99,,,-99.99,,2013-08-06 19:22:00,
2013-08-06 12:32:00,80.0,-99.9,29.80,West,280,7.0,8.0,0,-99.99,,,-99.99,,2013-08-06 19:32:00,
2013-08-06 12:52:00,81.0,-99.9,29.80,WNW,300,7.0,12.0,0,-99.99,,,-99.99,,2013-08-06 19:52:00,
2013-08-06 13:11:00,81.0,-99.9,29.80,WNW,295,7.0,10.0,0,-99.99,,,-99.99,,2013-08-06 20:11:00,
2013-08-06 13:22:00,82.0,-99.9,29.80,NW,310,1.0,12.0,0,-99.99,,,-99.99,,2013-08-06 20:22:00,
2013-08-06 13:32:00,82.0,-99.9,29.80,NW,310,1.0,12.0,0,-99.99,,,-99.99,,2013-08-06 20:32:00,
2013-08-06 13:44:00,82.0,-99.9,29.79,WNW,295,2.0,9.0,0,-99.99,,,-99.99,,2013-08-06 20:44:00,
2013-08-06 13:52:00,82.0,-99.9,29.79,WNW,295,2.0,9.0,0,-99.99,,,-99.99,,2013-08-06 20:52:00,
2013-08-06 14:12:00,83.0,-99.9,29.79,WNW,285,3.0,12.0,0,-99.99,,,-99.99,,2013-08-06 21:12:00,
2013-08-06 14:22:00,83.0,-99.9,29.78,WNW,285,10.0,10.0,0,-99.99,,,-99.99,,2013-08-06 21:22:00,
2013-08-06 14:32:00,85.0,-99.9,29.78,NNE,25,3.0,9.0,0,-99.99,,,-99.99,,2013-08-06 21:32:00,
2013-08-06 14:43:00,86.0,-99.9,29.77,NW,305,6.0,10.0,0,-99.99,,,-99.99,,2013-08-06 21:43:00,
2013-08-06 14:53:00,86.0,-99.9,29.77,NW,305,6.0,10.0,0,-99.99,,,-99.99,,2013-08-06 21:53:00,
2013-08-06 15:11:00,85.0,-99.9,29.77,WNW,290,9.0,12.0,0,-99.99,,,-99.99,,2013-08-06 22:11:00,
2013-08-06 15:32:00,86.0,-99.9,29.76,West,275,2.0,16.0,0,-99.99,,,-99.99,,2013-08-06 22:32:00,
2013-08-06 15:53:00,86.0,-99.9,29.76,NNW,330,3.0,9.0,0,-99.99,,,-99.99,,2013-08-06 22:53:00,
2013-08-06 16:02:00,86.0,-99.9,29.76,NNW,340,3.0,9.0,0,-99.99,,,-99.99,,2013-08-06 23:02:00,
2013-08-06 16:11:00,86.0,-99.9,29.76,NNW,340,3.0,9.0,0,-99.99,,,-99.99,,2013-08-06 23:11:00,
2013-08-06 16:22:00,86.0,-99.9,29.75,WNW,295,6.0,12.0,0,-99.99,,,-99.99,,2013-08-06 23:22:00,
2013-08-06 16:33:00,86.0,-99.9,29.74,NW,315,2.0,10.0,0,-99.99,,,-99.99,,2013-08-06 23:33:00,
2013-08-06 16:43:00,87.0,-99.9,29.74,West,280,7.0,12.0,0,-99.99,,,-99.99,,2013-08-06 23:43:00,
2013-08-06 16:52:00,87.0,-99.9,29.74,West,280,7.0,12.0,0,-99.99,,,-99.99,,2013-08-06 23:52:00,
2013-08-06 17:01:00,86.0,-99.9,29.74,NW,325,3.0,14.0,0,-99.99,,,-99.99,,2013-08-07 00:01:00,
2013-08-06 17:11:00,87.0,-99.9,29.73,North,5,8.0,12.0,0,-99.99,,,-99.99,,2013-08-07 00:11:00,
2013-08-06 17:22:00,87.0,-99.9,29.73,North,5,8.0,12.0,0,-99.99,,,-99.99,,2013-08-07 00:22:00,
2013-08-06 17:52:00,87.0,-99.9,29.72,North,10,3.0,12.0,0,-99.99,,,-99.99,,2013-08-07 00:52:00,
2013-08-06 18:11:00,87.0,-99.9,29.72,NW,320,3.0,13.0,0,-99.99,,,-99.99,,2013-08-07 01:11:00,
2013-08-06 18:22:00,87.0,-99.9,29.72,NW,325,6.0,10.0,0,-99.99,,,-99.99,,2013-08-07 01:22:00,
2013-08-06 18:32:00,87.0,-99.9,29.72,NW,325,6.0,10.0,0,-99.99,,,-99.99,,2013-08-07 01:32:00,
2013-08-06 18:43:00,86.0,-99.9,29.72,North,355,3.0,12.0,0,-99.99,,,-99.99,,2013-08-07 01:43:00,
2013-08-06 18:53:00,86.0,-99.9,29.72,North,355,3.0,12.0,0,-99.99,,,-99.99,,2013-08-07 01:53:00,
2013-08-06 19:22:00,85.0,-99.9,29.72,NNW,340,5.0,10.0,0,-99.99,,,-99.99,,2013-08-07 02:22:00,
2013-08-06 19:33:00,85.0,-99.9,29.72,NNE,20,10.0,10.0,0,-99.99,,,-99.99,,2013-08-07 02:33:00,
2013-08-06 19:43:00,85.0,-99.9,29.72,NNE,20,10.0,10.0,0,-99.99,,,-99.99,,2013-08-07 02:43:00,
2013-08-06 19:53:00,84.0,-99.9,29.72,NW,320,8.0,10.0,0,-99.99,,,-99.99,,2013-08-07 02:53:00,
2013-08-06 20:01:00,83.0,-99.9,29.72,NNE,25,9.0,12.0,0,-99.99,,,-99.99,,2013-08-07 03:01:00,
2013-08-06 20:23:00,82.0,-99.9,29.73,NW,320,3.0,9.0,0,-99.99,,,-99.99,,2013-08-07 03:23:00,
2013-08-06 20:32:00,80.0,-99.9,29.73,NNW,345,3.0,8.0,0,-99.99,,,-99.99,,2013-08-07 03:32:00,
2013-08-06 20:43:00,79.0,-99.9,29.74,NW,325,5.0,10.0,0,-99.99,,,-99.99,,2013-08-07 03:43:00,
2013-08-06 20:52:00,79.0,-99.9,29.74,NW,325,5.0,10.0,0,-99.99,,,-99.99,,2013-08-07 03:52:00,
2013-08-06 21:01:00,77.0,-99.9,29.74,NNE,20,6.0,10.0,0,-99.99,,,-99.99,,2013-08-07 04:01:00,
2013-08-06 21:11:00,77.0,-99.9,29.74,NNE,20,6.0,10.0,0,-99.99,,,-99.99,,2013-08-07 04:11:00,
2013-08-06 21:22:00,76.0,-99.9,29.75,North,10,7.0,9.0,0,-99.99,,,-99.99,,2013-08-07 04:22:00,
2013-08-06 21:33:00,75.0,-99.9,29.75,North,350,5.0,7.0,0,-99.99,,,-99.99,,2013-08-07 04:33:00,
2013-08-06 21:43:00,74.0,-99.9,29.76,NNE,20,1.0,5.0,0,-99.99,,,-99.99,,2013-08-07 04:43:00,
2013-08-06 21:52:00,74.0,-99.9,29.76,NNE,20,1.0,5.0,0,-99.99,,,-99.99,,2013-08-07 04:52:00,
2013-08-06 22:02:00,73.0,-99.9,29.76,NNW,345,1.0,5.0,0,-99.99,,,-99.99,,2013-08-07 05:02:00,
2013-08-06 22:11:00,73.0,-99.9,29.76,NNW,345,1.0,5.0,0,-99.99,,,-99.99,,2013-08-07 05:11:00,
2013-08-06 22:22:00,72.0,-99.9,29.76,NNW,340,2.0,5.0,0,-99.99,,,-99.99,,2013-08-07 05:22:00,
2013-08-06 22:32:00,72.0,-99.9,29.76,NNW,340,1.0,5.0,0,-99.99,,,-99.99,,2013-08-07 05:32:00,
2013-08-06 22:43:00,71.0,-99.9,29.76,WNW,295,1.0,2.0,0,-99.99,,,-99.99,,2013-08-07 05:43:00,
2013-08-06 22:52:00,71.0,-99.9,29.76,WNW,295,1.0,2.0,0,-99.99,,,-99.99,,2013-08-07 05:52:00,
2013-08-06 23:02:00,70.0,-99.9,29.77,NW,315,0.0,6.0,0,-99.99,,,-99.99,,2013-08-07 06:02:00,
2013-08-06 23:22:00,70.0,-99.9,29.76,NNW,345,0.0,2.0,0,-99.99,,,-99.99,,2013-08-07 06:22:00,
2013-08-06 23:52:00,69.0,-99.9,29.76,North,350,0.0,1.0,0,-99.99,,,-99.99,,2013-08-07 06:52:00,